EW0600 Weather Reports


Display with metric or nautical units.
time (UTC)temp
F
wind
direction
speed
MPH
gust
MPH
rain 1hr
in
rain 24hr
in
rain mn
in
humidity
%
barometer
mb
20260503013002 62 264 12.0 21.0 0.00 0.00 0.00 43 1008.2
20260503012646 63 233 14.0 24.0 0.00 0.00 0.00 42 1008.2
20260503011611 62 278 15.0 24.0 0.00 0.00 0.00 43 1008.2
20260503011609 62 266 10.0 25.0 0.00 0.00 0.00 43 1008.3
20260503010003 62 245 7.0 9.0 0.00 0.00 0.00 41 1008.1
20260503005452 63 266 4.0 8.0 0.00 0.00 0.00 42 1008.0
20260503004602 63 295 7.0 18.0 0.00 0.00 0.00 41 1008.1
20260503004512 63 289 9.0 17.0 0.00 0.00 0.00 40 1008.0
20260503003534 64 274 9.0 17.0 0.00 0.00 0.00 39 1008.3
20260503003002 63 248 8.0 18.0 0.00 0.00 0.00 41 1008.2
20260503002514 64 264 10.0 20.0 0.00 0.00 0.00 38 1008.2
20260503001602 63 242 16.0 21.0 0.00 0.00 0.00 40 1008.3
20260503001517 64 240 13.0 20.0 0.00 0.00 0.00 39 1008.2
20260503000004 63 278 10.0 16.0 0.00 0.00 0.00 39 1008.4
20260502235339 64 249 10.0 22.0 0.00 0.00 0.00 38 1008.3
20260502234605 64 246 8.0 23.0 0.00 0.00 0.00 39 1008.2
20260502234328 64 299 7.0 22.0 0.00 0.00 0.00 38 1008.1
20260502233337 64 218 10.0 29.0 0.00 0.00 0.00 39 1008.2
20260502233002 64 282 10.0 28.0 0.00 0.00 0.00 39 1008.2
20260502231613 65 236 14.0 22.0 0.00 0.00 0.00 37 1008.3
20260502231253 65 240 10.0 15.0 0.00 0.00 0.00 37 1008.3
20260502230244 65 227 8.0 21.0 0.00 0.00 0.00 36 1008.4
20260502230002 65 233 7.0 17.0 0.00 0.00 0.00 38 1008.4
20260502225254 65 289 13.0 21.0 0.00 0.00 0.00 37 1008.6
20260502224604 65 231 13.0 19.0 0.00 0.00 0.00 36 1008.6
20260502224303 65 249 10.0 18.0 0.00 0.00 0.00 36 1008.5
20260502223309 66 263 10.0 15.0 0.00 0.00 0.00 36 1008.8
20260502223002 65 243 10.0 16.0 0.00 0.00 0.00 36 1008.9
20260502221602 66 262 14.0 22.0 0.00 0.00 0.00 36 1009.0
20260502221141 66 230 10.0 17.0 0.00 0.00 0.00 36 1008.9
20260502220156 66 265 15.0 21.0 0.00 0.00 0.00 34 1009.1
20260502220002 66 245 18.0 22.0 0.00 0.00 0.00 34 1009.1
20260502215126 66 264 11.0 21.0 0.00 0.00 0.00 39 1009.1
20260502214602 66 263 14.0 22.0 0.00 0.00 0.00 36 1009.3
20260502214127 66 243 11.0 21.0 0.00 0.00 0.00 35 1009.3
20260502213057 66 240 14.0 22.0 0.00 0.00 0.00 36 1009.6
20260502213003 65 220 12.0 23.0 0.00 0.00 0.00 37 1009.7
20260502212113 66 245 13.0 23.0 0.00 0.00 0.00 35 1009.6
20260502211605 65 252 13.0 24.0 0.00 0.00 0.00 37 1009.9
20260502211111 65 278 11.0 27.0 0.00 0.00 0.00 36 1009.9
20260502210011 64 244 12.0 28.0 0.00 0.00 0.00 36 1010.2
20260502204920 65 265 14.0 25.0 0.00 0.00 0.00 37 1010.4
20260502204618 64 267 14.0 27.0 0.00 0.00 0.00 36 1010.5
20260502203901 65 258 11.0 19.0 0.00 0.00 0.00 37 1010.6
20260502203005 64 275 11.0 20.0 0.00 0.00 0.00 40 1010.8
20260502202917 64 244 11.0 19.0 0.00 0.00 0.00 38 1010.8
20260502201842 64 247 11.0 20.0 0.00 0.00 0.00 38 1011.1
20260502201602 63 232 13.0 18.0 0.00 0.00 0.00 38 1011.1
20260502200820 64 226 10.0 20.0 0.00 0.00 0.00 36 1011.2
20260502200002 62 241 11.0 18.0 0.00 0.00 0.00 36 1011.5
20260502194602 61 281 12.0 20.0 0.00 0.00 0.00 37 1011.9
20260502193531 62 243 14.0 20.0 0.00 0.00 0.00 37 1011.9
20260502193003 61 229 15.0 21.0 0.00 0.00 0.00 36 1012.1
20260502192504 62 268 11.0 18.0 0.00 0.00 0.00 37 1012.2
20260502191603 61 243 12.0 20.0 0.00 0.00 0.00 39 1012.4
20260502191512 61 252 11.0 19.0 0.00 0.00 0.00 41 1012.4
20260502190447 61 276 10.0 19.0 0.00 0.00 0.00 38 1012.7
20260502190003 60 255 11.0 20.0 0.00 0.00 0.00 39 1012.7
20260502185421 61 278 9.0 17.0 0.00 0.00 0.00 37 1012.8
20260502184411 60 218 9.0 18.0 0.00 0.00 0.00 39 1013.0
20260502183406 60 287 9.0 18.0 0.00 0.00 0.00 41 1013.3
20260502183002 59 226 9.0 19.0 0.00 0.00 0.00 42 1013.4
20260502182344 59 262 10.0 18.0 0.00 0.00 0.00 38 1013.5
20260502181604 58 223 10.0 18.0 0.00 0.00 0.00 39 1013.6
20260502181343 58 206 9.0 17.0 0.00 0.00 0.00 41 1013.6
20260502180325 58 232 9.0 19.0 0.00 0.00 0.00 38 1013.9
20260502170128 56 281 9.0 16.0 0.00 0.00 0.00 45 1014.9
20260502170110 55 231 11.0 17.0 0.00 0.00 0.00 42 1015.0
20260502164130 55 274 8.0 16.0 0.00 0.00 0.00 40 1015.1
20260502163103 55 229 4.0 16.0 0.00 0.00 0.00 45 1015.4
20260502163101 55 231 8.0 15.0 0.00 0.00 0.00 45 1015.4
20260502161502 53 278 7.0 16.0 0.00 0.00 0.00 45 1015.6
20260502160913 54 280 9.0 20.0 0.00 0.00 0.00 46 1015.6
20260502151659 52 249 12.0 17.0 0.00 0.00 0.00 51 1016.1
20260502151503 51 277 13.0 17.0 0.00 0.00 0.00 51 1016.2
20260502150652 52 266 10.0 16.0 0.00 0.00 0.00 50 1016.2
20260502140104 46 258 6.0 11.0 0.00 0.00 0.00 61 1016.8
20260502130340 41 268 4.0 7.0 0.00 0.00 0.00 69 1016.8
20260502123328 39 255 3.0 6.0 0.00 0.00 0.00 72 1016.9
20260502123104 38 233 4.0 7.0 0.00 0.00 0.00 74 1016.9
20260502122331 38 238 2.0 4.0 0.00 0.00 0.00 74 1016.8
20260502121505 36 251 1.0 2.0 0.00 0.00 0.00 76 1016.9
20260502121334 37 251 0.0 2.0 0.00 0.00 0.00 76 1016.8
20260502120333 36 259 1.0 2.0 0.00 0.00 0.00 75 1016.8
20260502120106 36 246 2.0 3.0 0.00 0.00 0.00 74 1016.8
20260502115306 36 243 0.0 2.0 0.00 0.00 0.00 74 1016.7
20260502114503 35 243 1.0 3.0 0.00 0.00 0.00 74 1016.7
20260502113110 35 208 1.0 1.0 0.00 0.00 0.00 74 1016.6
20260502113104 35 208 1.0 2.0 0.00 0.00 0.00 74 1016.6
20260502112112 35 211 1.0 2.0 0.00 0.00 0.00 75 1016.5
20260502111503 34 221 1.0 3.0 0.00 0.00 0.00 75 1016.6
20260502111111 34 221 1.0 2.0 0.00 0.00 0.00 76 1016.5
20260502110103 34 209 0.0 2.0 0.00 0.00 0.00 75 1016.6
20260502105005 35 255 0.0 0.0 0.00 0.00 0.00 74 1016.5
20260502104502 34 255 0.0 2.0 0.00 0.00 0.00 74 1016.6
20260502103934 35 233 0.0 1.0 0.00 0.00 0.00 74 1016.6
20260502103110 34 213 1.0 2.0 0.00 0.00 0.00 74 1016.7
20260502102905 35 213 0.0 1.0 0.00 0.00 0.00 74 1016.6
20260502101909 35 236 0.0 1.0 0.00 0.00 0.00 74 1016.5
20260502101506 34 226 0.0 2.0 0.00 0.00 0.00 75 1016.6
20260502100910 34 250 0.0 1.0 0.00 0.00 0.00 75 1016.5
20260502100104 34 238 0.0 3.0 0.00 0.00 0.00 74 1016.5
20260502091502 35 204 2.0 4.0 0.00 0.00 0.00 72 1016.5
20260502090837 36 205 2.0 3.0 0.00 0.00 0.00 72 1016.4
20260502090105 36 212 2.0 4.0 0.00 0.00 0.00 70 1016.5
20260502071502 36 222 0.0 1.0 0.00 0.00 0.00 71 1016.6
20260502070708 36 222 0.0 0.0 0.00 0.00 0.00 69 1016.6
20260502070104 36 222 0.0 2.0 0.00 0.00 0.00 68 1016.6
20260502065705 37 223 0.0 2.0 0.00 0.00 0.00 67 1016.6
20260502064704 37 222 1.0 2.0 0.00 0.00 0.00 67 1016.6
20260502064503 37 222 1.0 3.0 0.00 0.00 0.00 67 1016.7
20260502063652 37 221 1.0 2.0 0.00 0.00 0.00 68 1016.7
20260502063104 37 221 2.0 3.0 0.00 0.00 0.00 69 1016.7
20260502062620 38 236 1.0 1.0 0.00 0.00 0.00 69 1016.7
20260502061549 38 236 0.0 1.0 0.00 0.00 0.00 69 1016.7
20260502061502 37 243 2.0 2.0 0.00 0.00 0.00 68 1016.7
20260502055433 38 252 1.0 2.0 0.00 0.00 0.00 66 1016.7
20260502054501 38 240 1.0 2.0 0.00 0.00 0.00 66 1016.8
20260502054414 38 240 0.0 1.0 0.00 0.00 0.00 66 1016.7
20260502053354 38 240 0.0 1.0 0.00 0.00 0.00 67 1016.7
20260502053103 38 240 1.0 2.0 0.00 0.00 0.00 69 1016.8
20260502052348 39 240 0.0 0.0 0.00 0.00 0.00 66 1016.7
20260502051503 38 240 0.0 2.0 0.00 0.00 0.00 65 1016.7
20260502050154 39 240 0.0 0.0 0.00 0.00 0.00 65 1016.6
20260502045202 39 240 0.0 0.0 0.00 0.00 0.00 66 1016.5
20260502044502 38 240 0.0 1.0 0.00 0.00 0.00 67 1016.6
20260502044222 39 240 0.0 0.0 0.00 0.00 0.00 67 1016.5
20260502043157 39 240 0.0 0.0 0.00 0.00 0.00 66 1016.5
20260502043108 39 240 1.0 1.0 0.00 0.00 0.00 66 1016.6
20260502042206 39 240 0.0 0.0 0.00 0.00 0.00 64 1016.5
20260502041502 39 240 0.0 1.0 0.00 0.00 0.00 63 1016.5
20260502041207 40 240 0.0 1.0 0.00 0.00 0.00 62 1016.5
20260502040227 40 240 0.0 1.0 0.00 0.00 0.00 62 1016.5
20260502035224 41 240 0.0 1.0 0.00 0.00 0.00 61 1016.5
20260502034503 41 240 1.0 2.0 0.00 0.00 0.00 59 1016.6
20260502034228 42 240 0.0 1.0 0.00 0.00 0.00 59 1016.5
20260502033226 42 240 0.0 1.0 0.00 0.00 0.00 59 1016.6
20260502033102 41 240 1.0 2.0 0.00 0.00 0.00 59 1016.6
20260502032156 42 240 0.0 2.0 0.00 0.00 0.00 60 1016.6
20260502031503 41 239 1.0 3.0 0.00 0.00 0.00 59 1016.7
20260502031130 42 264 1.0 2.0 0.00 0.00 0.00 59 1016.6
20260502030121 42 264 1.0 1.0 0.00 0.00 0.00 58 1016.6
20260502025134 42 265 0.0 2.0 0.00 0.00 0.00 57 1016.5
20260502024503 42 265 1.0 1.0 0.00 0.00 0.00 58 1016.6
20260502024128 42 265 0.0 2.0 0.00 0.00 0.00 58 1016.5
20260502023103 43 266 0.0 1.0 0.00 0.00 0.00 56 1016.5
20260502022048 44 275 0.0 1.0 0.00 0.00 0.00 56 1016.4
20260502021502 43 275 0.0 2.0 0.00 0.00 0.00 54 1016.5
20260502021032 44 275 0.0 1.0 0.00 0.00 0.00 53 1016.4
20260502020022 45 276 1.0 1.0 0.00 0.00 0.00 53 1016.3
20260502015013 45 283 0.0 0.0 0.00 0.00 0.00 53 1016.2
20260502014502 45 284 1.0 2.0 0.00 0.00 0.00 52 1016.2
20260502013939 46 308 0.0 1.0 0.00 0.00 0.00 50 1016.1